Regional Weather Roundup
Issued by NWS Wakefield, VA

Home | Current Version | Previous Version | Text Only | Print | Product List | Glossary Off
Versions: 1 2 3 4 5 6 7 8 9 10 11 12 13 14 15 16 17 18 19 20 21 22 23 24 25 26 27

000
ASUS41 KAKQ 180015
RWRAKQ

REGIONAL WEATHER ROUNDUP
NATIONAL WEATHER SERVICE WAKEFIELD VA
800 PM EDT THU AUG 17 2017

Note: "fair" indicates few or no clouds below 12,000 feet with no
significant weather and/or obstructions to visibility. * = Denotes
station may not report precipitation (e.g., rain,snow,etc.),
thunder or fog.

VAZ042-051-052>054-056-180100-
NORTHERN VIRGINIA

CITY           SKY/WX    TMP DP  RH WIND       PRES   REMARKS
WASH NATIONAL  PTCLDY    84  75  74 S13       29.93F
DULLES         MOCLDY    82  75  79 SE8       29.92F
FORT BELVOIR   CLEAR     82  72  73 SE7       29.92F
QUANTICO       CLEAR     83  76  79 S10       29.92F
FREDERICKSBRG* CLEAR     83  75  77 SE7       29.92S
STAFFORD*      CLEAR     79  75  86 SE3       29.97S
WARRENTON      MOCLDY    83  71  68 SE3       29.92S
CULPEPER*      CLEAR     83  75  78 S3        29.93S
MANASSAS*      PTCLDY    81  74  79 SE6       29.92F
LEESBURG*      CLEAR     86  77  74 S6        29.93S HX  97
WINCHESTER     PTCLDY    77  72  83 CALM        N/A
FRONT ROYAL*   PTCLDY    81  72  74 CALM      29.91S
LURAY*         CLEAR     82  72  69 CALM      29.93S
$$

VAZ048-049-060>072-079>083-180100-
CENTRAL AND SOUTH CENTRAL VIRGINIA

CITY           SKY/WX    TMP DP  RH WIND       PRES   REMARKS
RICHMOND       PTCLDY    82  75  79 S7        29.95S
CHESTERFIELD*  FAIR      82  75  79 S6        29.96R
PETERSBURG*    PTCLDY    80  73  78 S3        29.97R
HANOVER        CLEAR     83  71  67 VRB6      29.95S
TAPPAHANNOCK*  CLEAR     82  66  58 SE3       29.96S
QUINTON*       FAIR      82  78  86 CALM      29.95R
CHARLOTTSVILLE TSTM      79  74  84 S9G16     29.95R
GORDONSVILLE*  PTCLDY    82  76  81 S3        29.94R
ORANGE*        CLEAR     81  73  78 S5        29.94R
LOUISA*        CLEAR     81  73  78 S5        29.94R
BUMPASS*       FAIR      82  75  81 S3        29.94S
FARMVILLE*     PTCLDY    82  78  89 S5        29.94R
CREWE*         FAIR      80  75  86 S3        29.95S
FORT PICKETT*  FAIR     N/A N/A N/A S3        29.96S
CHASE CITY*    FAIR      81  79  92 SE3       29.97R
CLARKSVILLE*   FAIR      79  79 100 S3        29.97R
SOUTH HILL*    CLOUDY    79  77  94 SE3       30.03R
LAWRENCEVILLE* FAIR      79  76  90 SE3       29.97R
EMPORIA*         N/A     79  77  94 SE3       29.98R
$$

VAZ088>098-180100-
SOUTHEAST VIRGINIA

CITY           SKY/WX    TMP DP  RH WIND       PRES   REMARKS
NORFOLK        CLEAR     81  73  76 S8        29.97R
VIRGINIA BEACH MOCLDY    79  71  76 S9        29.97R
NORFOLK NAVAL  PTCLDY    82  72  71 SE8       29.98R
WEST POINT*    CLEAR     80  72  77 E5        29.96S
SALUDA*        FAIR      79  73  83 SE3       29.95F
NEWPORT NEWS   PTCLDY    83  71  67 S7        29.96R
LANGLEY AFB    NOT AVBL
FORT EUSTIS    NOT AVBL
WILLIAMSBURG*  PTCLDY    84  73  70 CALM      29.97R
HR EXEC AP*    FAIR      81  73  78 SE6       29.95R
FRANKLIN*      CLOUDY    80  73  79 SE3       29.97R
US460-WAKEFLD  CLOUDY    80  75  84 CALM      29.96S
$$

VAZ020-022-025-037-045-180100-
WEST CENTRAL AND SOUTHWEST VIRGINIA

CITY           SKY/WX    TMP DP  RH WIND       PRES   REMARKS
STAUNTON*      CLOUDY    82  74  78 S6        29.97R
WAYNESBORO*    MOCLDY    78  72  82 S10G24    29.98S
HOT SPRINGS VA RAIN      73  63  68 W5        30.13S
LYNCHBURG      MOCLDY    83  74  74 CALM      29.97R
DANVILLE       PTCLDY    83  77  82 VRB5      29.95R
SOUTH BOSTON*  FAIR      81  74  79 SE3       29.96R
MARTINSVILLE   PTCLDY    81  77  89 CALM      30.00S
ROANOKE        TSTM      79  72  79 W6        30.01R
BLACKSBURG     CLOUDY    79  73  81 CALM      30.06S
DUBLIN*        CLOUDY    81  71  73 S9        30.05R
MARION*        CLEAR     78  15   9 SW3       30.11R
HILLSVILLE*    CLEAR     73  69  87 CALM      30.08S
RICHLANDS*     FAIR      75  65  70 S3        30.08S
WISE*          PTCLDY    77  68  73 SW5       30.09R
ABINGDON*      CLOUDY    79  72  77 CALM      30.06R
$$

MDZ021>025-VAZ099-100-180100-
SOUTHERN MARYLAND AND THE DELMARVA PENINSULA

CITY           SKY/WX    TMP DP  RH WIND       PRES   REMARKS
PATUXENT RIVER PTCLDY    79  70  74 S7        29.94F
BAY BRIDGE APT CLEAR     79  75  89 SE5       29.94F
LEONARDTOWN    CLEAR     79  70  73 SE3       29.97S
DOVER          MOCLDY    79  73  83 SE7       29.94F
GEORGETOWN     CLOUDY    80  71  74 S7        29.98S
EASTON         MOCLDY    82  73  74 S9        29.99F
CAMBRIDGE      MOCLDY    81  72  74 VRB6      29.96S
SALISBURY      CLOUDY    78  71  79 SE5       29.98R
OCEAN CITY     CLOUDY    78  73  84 VRB6      29.99S
WALLOPS ISLAND CLOUDY    77  74  90 S9        29.98F
ACCOMACK*      CLEAR     78  72  82 S8        29.97S
$$

NCZ012>017-030>032-180100-
NORTH CENTRAL AND EASTERN NORTH CAROLINA

CITY           SKY/WX    TMP DP  RH WIND       PRES   REMARKS
ROANOKE RAPIDS FAIR      77  77 100 CALM      29.97R
RALEIGH        CLOUDY    81  74  79 S7        29.99R
ELIZABETH CITY PTCLDY    81  76  84 SE7       29.99R
AHOSKIE*         N/A     77  76  96 S3        29.98R
EDENTON*       CLOUDY    85  73  65 S8        29.99S
CURRITUCK*     PTCLDY    79  73  82 S3        29.99R
KILL DEVIL HLS PTCLDY    79  73  81 CALM      30.00R
MANTEO         PTCLDY    79  73  83 S6        30.01R
CAPE HATTERAS  CLEAR     82  74  76 S7        30.01S
TARBORO*       NOT AVBL
GOLDSBORO      CLEAR     77  77 100 CALM      29.97S
WASHINGTON     LGT RAIN  80  79  95 CALM      30.01R
GREENVILLE     CLOUDY    81  77  89 S5        30.01R
NEW BERN       CLOUDY    82  79  90 S6        30.01R
WILMINGTON     CLOUDY    80  77  90 S3        29.97F
$$

VAZ048-180100-
ELSEWHERE

CITY           SKY/WX    TMP DP  RH WIND       PRES   REMARKS
HARRISBURG PA  CLOUDY    81  74  79 SE9       29.91S
BALTIMORE      PTCLDY    78  74  87 SE6       29.93F
ANNAPOLIS      PTCLDY    80  77  90 S9        29.93F
ANDREWS AFB    CLEAR     80  76  88 SE7       29.93F
PHILADELPHIA   MOCLDY    81  67  62 S8        29.96S
HENDERSON NC   CLOUDY    76  71  85 SE3       29.98R
GREENSBORO     MOCLDY    86  74  67 W6        29.97R
ROCKY MOUNT    CLOUDY    79  75  87 S8        29.98R
$$

VAZ100-180100-
MARINE

STATION/POSITION TIME  TEMP    WIND        PRES    WAVE   SWELL
                       AIR SEA DIR/SP/G            HT/PER HT/PER
                 (UTC) (F)     (DEG/KT/KT) (MB)    (FT/S) (FT/S)
BRANDYWINE LGT   2348   77     190/ 18/ 21 1015.0F
CAPE MAY NJ      2348   77 79  170/  8/ 11 1014.5S
LEWES DE         2348   78 78  190/  2/  4 1014.9R
15NM E FENWICK I 2250   78 78  180/ 12/ 14 1015.8    2/ 7   2/ 7
OCEAN-CITY-INLET 2348   78 77  210/ 10/ 11 1015.9R
WACHAPREAGUE VA  2348   80 84  190/ 10/ 13 1015.1F
THOMAS POINT MD  0000   81 80  170/ 17/ 18   N/A
GOOSES REEF MD   0000   82 80  160/ 16/ 17 1014.5    2/ 3
COVE POINT MD    2348   81     180/ 16/ 17 1014.8F
SOLOMONS ISLAND  2348   81 82  150/  8/  9   N/A
BISHOPS HEAD MD  2348   82 84  150/ 14/ 16 1014.7F
PINEY POINT MD   2348          180/ 11/ 12   N/A
POTOMAC MD       0000   81 81  170/ 12/ 16 1013.4    1/ 2
CAMBRIDGE MD     2348   81 82              1015.3F
LEWISETTA VA     2348   81 84  180/  8/ 10 1014.0F
RAPPAHANNOCK LGT 2348          130/ 13/ 14 1015.3S
STINGRAY PT      0000   81 81  190/ 16/ 17 1014.8    2/ 3
YORK RVR RNG VA  2348   81     160/ 15/ 16 1014.9R
YORKTOWN VA      2348   84 82  170/  3/  4 1014.1R
JAMESTOWN VA     0000      83  170/  6/  6   N/A     0
DOMINION TERM VA 2348   82     150/ 12/ 14 1014.6R
KIPTOPEKE VA     2348      80  160/ 12/ 14   N/A
CHES BAY BRIDGE  2348   80 76  180/ 12/ 15 1014.8R
CAPE HENRY VA    2348   78     160/  9/ 12   N/A
WILLOUBY STN VA  2348   82     160/ 11/ 13 1014.7R
S CRANEY ISL VA  2348   82     160/ 13/ 15 1014.6R
CAPE HENRY BUOY  0000      79                N/A     2/ 7
1ST LANDING BUOY 0000   79 78              1014.8    1/ 3
64NM E OF VA BCH 2350   78 80  150/  6/  8 1016.3F   2/ 8   2/ 8
DUCK PIER NC     2348   79 76  140/ 13/ 15 1015.0F
44100 DUCK FRF   2305      80                N/A     2/ 7
44056 DUCK FRF   2330      80                N/A     2/ 7
OREGON INLET NC  2336   79 86  130/  6/  9 1015.9R
HATTERAS NC      2348   82 85  170/  5/  9 1016.2R
DIAMOND SHLS NC  2350   83 87  180/  8/ 10 1016.2R   2/ 7   2/ 7
CAPE LOOKOUT NC  0000   83     160/  8/  9 1015.6R
$$




USA.gov is the U.S. government's official web portal to all federal, state and local government web resources and services.